Location: Niagara
(43.2500°N, 79.0670°W)
Time: 08:56:01
(UTC-04:00)

Vanguard 1 Rocket - All Passes

Search period start: 17 October 2017 00:00
Search period end: 27 October 2017 00:00
Orbit: 655 x 4222 km, 34.3° (Epoch: 16 October)

Date Brightness Start Highest point End Pass type
(mag) Time Alt. Az. Time Alt. Az. Time Alt. Az.
17 Oct - 08:05:51 10° SSW 08:09:49 16° SSE 08:12:59 10° SE daylight
17 Oct - 10:30:05 10° SW 10:34:18 27° S 10:38:03 10° ESE daylight
17 Oct - 12:54:55 10° WSW 12:58:26 23° S 13:02:36 10° SE daylight
18 Oct - 06:55:48 10° S 06:58:50 12° SSE 07:01:23 10° SE visible
18 Oct - 09:18:58 10° SW 09:23:46 25° S 09:27:32 10° ESE daylight
18 Oct - 11:44:09 10° WSW 11:47:57 26° S 11:51:51 10° SE daylight
18 Oct - 14:09:53 10° SW 14:12:17 13° SSW 14:15:05 10° S daylight
19 Oct - 08:07:38 10° SW 08:13:04 22° SSE 08:17:01 10° ESE daylight
19 Oct - 10:33:06 10° WSW 10:37:31 29° S 10:41:21 10° ESE daylight
19 Oct - 12:58:35 10° WSW 13:01:38 18° SSW 13:05:04 10° SSE daylight
20 Oct - 06:56:22 10° SSW 07:02:06 18° SSE 07:06:15 10° ESE visible
20 Oct - 09:21:40 10° SW 09:27:01 29° S 09:31:00 10° ESE daylight
20 Oct - 11:47:30 10° WSW 11:51:09 23° SSW 11:54:48 10° SE daylight
21 Oct - 05:45:41 10° S 05:50:48 14° SSE 05:54:46 10° SE visible
21 Oct - 08:09:52 10° SW 08:16:20 27° S 08:20:43 10° ESE daylight
21 Oct - 10:36:12 10° WSW 10:40:43 29° S 10:44:33 10° SE daylight
21 Oct - 13:02:39 10° SW 13:04:47 13° SSW 13:07:04 10° S daylight
22 Oct - 04:38:06 10° SSE 04:39:09 10° SSE 04:40:09 10° SSE visible
22 Oct - 06:57:53 10° SW 07:05:22 24° SSE 07:10:18 10° ESE visible
22 Oct - 09:24:29 10° WSW 09:30:14 32° S 09:34:23 10° ESE daylight
22 Oct - 11:50:59 10° WSW 11:54:18 19° SSW 11:57:33 10° SSE daylight
23 Oct - 05:46:03 10° SSW 05:54:05 21° SSE 05:59:30 10° ESE visible
23 Oct - 08:12:19 10° SW 08:19:34 33° S 08:24:15 10° ESE daylight
23 Oct - 10:39:22 10° WSW 10:43:54 27° SSW 10:47:40 10° SE daylight
24 Oct - 04:35:00 10° S 04:42:23 16° SSE 04:47:50 10° ESE visible
24 Oct - 06:59:48 10° SW 07:08:37 31° S 07:14:01 10° ESE visible
24 Oct - 09:27:25 10° WSW 09:33:27 34° S 09:37:42 10° ESE daylight
24 Oct - 11:54:41 10° WSW 11:57:24 15° SSW 12:00:01 10° SSE daylight
25 Oct - 03:26:33 10° SSE 03:30:19 11° SSE 03:33:38 10° SE visible
25 Oct - 05:47:13 10° SSW 05:57:18 27° SSE 06:03:32 10° ESE visible
25 Oct - 08:14:56 10° WSW 08:22:47 37° S 08:27:41 10° ESE daylight
25 Oct - 10:42:38 10° WSW 10:47:03 24° SSW 10:50:39 10° SE daylight
26 Oct - 04:35:01 10° SSW 04:45:36 22° SSE 04:52:31 10° ESE visible
26 Oct - 07:01:59 10° SW 07:11:50 37° S 07:17:35 10° ESE visible
26 Oct - 09:30:24 10° WSW 09:36:37 33° SSW 09:40:55 10° SE daylight
26 Oct - 11:59:05 10° SW 12:00:25 11° SSW 12:01:44 10° SSW daylight
